Grand Forks, ND

10:17 AM CDT on July 25, 2017 (GMT -0500)
Grand Forks International

Weather History for KGFK - April, 2014

Change the Weather History Date:

Tuesday, April 8, 2014

  Actual Average Record
Temperature  
Mean Temperature 41 °F 38 °F  
Max Temperature 52 °F 49 °F 73 °F (1987)
Min Temperature 29 °F 27 °F 9 °F (1997)
Degree Days  
Heating Degree Days 24 27  
Month to date heating degree days 285 232  
Since 1 July heating degree days 9635 8617  
Cooling Degree Days 0 0  
Month to date cooling degree days 0 0  
Year to date cooling degree days 0 0  
Moisture  
Dew Point 32 °F    
Average Humidity 78    
Maximum Humidity 100    
Minimum Humidity 56    
Precipitation  
Precipitation 0.00 in 0.03 in 0.60 in (1969)
Month to date precipitation 0.14 0.23  
Year to date precipitation 2.14 2.26  
Snow  
Snow 0.00 in 0.10 in 5.00 in (1948)
Month to date snowfall 1.1 1.0  
Since 1 July snowfall 60.3 45.4  
Snow Depth 0.00 in    
Sea Level Pressure  
Sea Level Pressure 29.96 in    
Wind  
Wind Speed 7 mph (WSW)    
Max Wind Speed 15 mph    
Max Gust Speed 21 mph    
Visibility 10 miles    
Events      
T = Trace of Precipitation, MM = Missing Value Source: NWS Daily Summary

Daily Weather History Graph

Daily Weather History Graph

Search for Another Location

Airport or City:

Trip Planner

Search our weather history database for the weather conditions in past years. The results will help you decide how hot, cold, wet, or windy it might be!

Date:

Astronomy

Apr. 08, 2014 Rise Set
Actual Time 6:52 AM CDT 8:09 PM CDT
Civil Twilight 6:21 AM CDT 8:41 PM CDT
Nautical Twilight 5:42 AM CDT 9:19 PM CDT
Astronomical Twilight 5:01 AM CDT 10:01 PM CDT
Moon 1:38 PM CDT (4/8) 3:32 AM CDT (4/8)
Length of Visible Light 14h 19m
Length of Day
13h 16m
Waxing Gibbous, 63% of the Moon is Illuminated
Apr 8
Waxing Gibbous
Apr 15
Full
Apr 22
Last Quarter
Apr 29
New
May 6
First Quarter

Hourly Weather History & Observations

Time (CDT) Temp. Windchill Dew Point Humidity Pressure Visibility Wind Dir Wind Speed Gust Speed Precip Events Conditions
12:53 AM 34.0 °F 25.5 °F 30.9 °F 89% 29.98 in 10.0 mi North 11.5 mph - N/A   Clear
1:53 AM 33.1 °F 25.5 °F 30.0 °F 89% 29.99 in 10.0 mi NNW 9.2 mph - N/A   Clear
2:53 AM 30.9 °F 23.5 °F 28.9 °F 92% 29.99 in 10.0 mi NNW 8.1 mph - N/A   Clear
3:53 AM 30.9 °F 24.3 °F 28.9 °F 92% 30.01 in 10.0 mi NNW 6.9 mph - N/A   Clear
4:53 AM 30.0 °F 23.2 °F 28.0 °F 92% 30.02 in 10.0 mi NNW 6.9 mph - N/A   Clear
5:53 AM 28.9 °F 23.9 °F 27.0 °F 92% 30.03 in 10.0 mi NW 4.6 mph - N/A   Clear
6:53 AM 28.9 °F 25.2 °F 28.0 °F 96% 30.05 in 10.0 mi West 3.5 mph - N/A   Clear
7:53 AM 30.9 °F 25.2 °F 28.9 °F 92% 30.06 in 10.0 mi WNW 5.8 mph - N/A   Clear
8:53 AM 34.0 °F 28.8 °F 30.0 °F 85% 30.06 in 10.0 mi WNW 5.8 mph - N/A   Partly Cloudy
9:53 AM 36.0 °F 32.1 °F 30.0 °F 79% 30.07 in 10.0 mi WNW 4.6 mph - N/A   Scattered Clouds
10:53 AM 37.9 °F 34.4 °F 28.0 °F 68% 30.06 in 10.0 mi WSW 4.6 mph - N/A   Scattered Clouds
11:53 AM 39.9 °F - 28.9 °F 65% 30.06 in 10.0 mi Calm Calm - N/A   Scattered Clouds
12:53 PM 41.0 °F 38.0 °F 30.9 °F 67% 30.04 in 10.0 mi Variable 4.6 mph - N/A   Scattered Clouds
1:53 PM 45.0 °F 42.6 °F 35.1 °F 68% 30.01 in 10.0 mi South 4.6 mph - N/A   Scattered Clouds
2:53 PM 46.9 °F - 37.0 °F 68% 29.99 in 10.0 mi South 5.8 mph - N/A   Mostly Cloudy
3:53 PM 48.9 °F - 37.9 °F 66% 29.96 in 10.0 mi South 8.1 mph - N/A   Mostly Cloudy
4:53 PM 50.0 °F - 35.1 °F 57% 29.94 in 10.0 mi SW 5.8 mph - N/A   Mostly Cloudy
5:53 PM 50.0 °F - 35.1 °F 57% 29.91 in 10.0 mi SW 8.1 mph - N/A   Mostly Cloudy
6:53 PM 51.1 °F - 37.0 °F 59% 29.88 in 10.0 mi South 10.4 mph - N/A   Mostly Cloudy
7:53 PM 46.9 °F - 37.0 °F 68% 29.86 in 10.0 mi South 8.1 mph - N/A   Mostly Cloudy
8:53 PM 45.0 °F 39.7 °F 36.0 °F 71% 29.83 in 10.0 mi SSE 10.4 mph - N/A   Scattered Clouds
9:53 PM 43.0 °F 36.8 °F 36.0 °F 76% 29.80 in 10.0 mi SSE 11.5 mph - N/A   Partly Cloudy
10:53 PM 43.0 °F 36.4 °F 35.1 °F 74% 29.76 in 10.0 mi SSE 12.7 mph - N/A   Clear
11:53 PM 42.1 °F 34.9 °F 34.0 °F 73% 29.74 in 10.0 mi South 13.8 mph - N/A   Clear